Miscellaneous Local Product
Issued by NWS Hastings, NE

Home | Current Version | Previous Version | Graphics & Text | Print | Product List | Glossary On
Versions: 1 2 3 4 5 6 7 8 9 10 11 12 13 14 15 16 17 18 19 20 21 22 23 24 25 26 27 28 29 30 31 32 33 34 35 36 37 38 39 40 41 42 43 44 45 46 47 48 49 50
300
AXUS43 KGID 231102
MISGRI

GID CWA HOURLY WEATHER ROUNDUP
NATIONAL WEATHER SERVICE HASTINGS NE
600 AM CDT FRI JUN 23 2017

NOTE: "FAIR" INDICATES FEW OR NO CLOUDS BELOW 12,000 FEET WITH NO
SIGNIFICANT WEATHER AND/OR OBSTRUCTIONS TO VISIBILITY.

...SOUTH CENTRAL NEBRASKA...

CITY           SKY/WX    TMP DP  RH WIND       PRES   REMARKS
GRAND ISLAND   CLOUDY    62  55  77 N10       29.98R
HASTINGS       CLOUDY    64  53  67 N15       29.97R
KEARNEY        CLOUDY    63  50  63 N17       30.01R
ORD            CLOUDY    63  37  38 N20G25    30.02R
YORK           CLOUDY    61  55  82 NW8       29.94R
AURORA         CLOUDY    61  55  78 NW7       29.99R
LEXINGTON      CLOUDY    60  54  80 N8        30.05F
HOLDREGE       CLOUDY    63  48  58 NW12G22   30.04R
HEBRON         MOCLDY    65  59  79 N14       29.93R

...NEBRASKA PANHANDLE...

CITY           SKY/WX    TMP DP  RH WIND       PRES   REMARKS
CHADRON        LGT RAIN  54  43  66 W13G26    30.22R
ALLIANCE       CLOUDY    53  41  63 NW14      30.23R
SCOTTSBLUFF    CLOUDY    54  38  54 NW17G24   30.27R
SIDNEY         CLOUDY    53  44  71 N14       30.24R

...WESTERN AND NORTH CENTRAL NEBRASKA...

CITY           SKY/WX    TMP DP  RH WIND       PRES   REMARKS
VALENTINE      LGT RAIN  60  36  40 NW10      30.12R
AINSWORTH      LGT RAIN  58  42  55 NW18G26   30.10R
ONEILL         CLOUDY    59  42  52 NW18G24   30.04R
BROKEN BOW     CLOUDY    62  39  42 N31G39    30.00R
IMPERIAL       CLOUDY    58  55  90 N10       30.12R
NORTH PLATTE   LGT RAIN  60  43  53 N9        30.11R
MCCOOK         CLOUDY    59  54  83 N18G30    30.02F

...EASTERN NEBRASKA...

CITY           SKY/WX    TMP DP  RH WIND       PRES   REMARKS
NORFOLK        CLOUDY    63  44  50 N20G30    29.93R
SO SIOUX CITY    N/A    N/A N/A N/A MISG      29.88R
TEKAMAH        CLEAR     58  50  75 NW9       29.87R
COLUMBUS       CLOUDY    62  53  72 NW12      29.93R
ALBION         CLOUDY    66  40  38 NW14G21   29.99R
OMAHA EPPLEY   PTCLDY    62  56  80 N10       29.86R
OFFUTT AFB     PTCLDY    66  54  65 CALM      29.92R
MILLARD        CLEAR     64  56  77 NW6       29.88R
LINCOLN        PTCLDY    66  53  63 NW10      29.91R
NEBRASKA CITY  PTCLDY    64  64  99 N6        29.85R
BEATRICE       CLEAR     62  58  87 N7        29.87R
FALLS CITY     PTCLDY    67  59  75 N9        29.80R

...NORTHERN KANSAS...

CITY           SKY/WX    TMP DP  RH WIND       PRES   REMARKS
GOODLAND       CLOUDY    60  48  64 NE15      30.05R
HILL CITY      CLOUDY    66  54  65 N25G38    30.00R
NORTON         LGT RAIN  59  50  72 NW10      30.02F
PHILLIPSBURG   CLOUDY    64  55  72 NW18G29   29.98R
SMITH CENTER   CLEAR     64  54  68 N18       29.94R
HAYS           PTCLDY    66  59  78 N14       29.90R
RUSSELL        CLEAR     67  60  78 NE15      29.86R
CONCORDIA      CLEAR     68  57  68 N15G23    29.87R
SALINA         PTCLDY    74  62  66 N16G25    29.83R
TOPEKA         CLOUDY    74  67  78 N15G26    29.76R



USA.gov is the U.S. government's official web portal to all federal, state and local government web resources and services.